Dansville, NY

1:40 PM EST on November 14, 2019 (GMT -0500)
Dansville Municipal

Weather History for KDSV - October, 2019

Change the Weather History Date:

Wednesday, October 23, 2019

  Actual Average Record
Temperature  
Mean Temperature 48 °F -  
Max Temperature 59 °F 59 °F 84 °F (1979)
Min Temperature 39 °F 37 °F 21 °F (1969)
Degree Days  
Heating Degree Days 17    
Moisture  
Dew Point 37 °F    
Average Humidity 72    
Maximum Humidity 100    
Minimum Humidity 36    
Precipitation  
Precipitation 0.00 in - - ()
Sea Level Pressure  
Sea Level Pressure 29.99 in    
Wind  
Wind Speed 5 mph (SSE)    
Max Wind Speed 14 mph    
Max Gust Speed 22 mph    
Visibility 9 miles    
Events      
Averages and records for this station are not official NWS values.
T = Trace of Precipitation, MM = Missing Value Source: NWS Daily Summary

Daily Weather History Graph

Daily Weather History Graph

Search for Another Location

Airport or City:

Astronomy

Oct. 23, 2019 Rise Set
Actual Time 7:33 AM EDT 6:16 PM EDT
Civil Twilight 7:04 AM EDT 6:45 PM EDT
Nautical Twilight 6:31 AM EDT 7:18 PM EDT
Astronomical Twilight 5:58 AM EDT 7:50 PM EDT
Moon 1:39 AM EDT (10/23) 4:14 PM EDT (10/23)
Length of Visible Light 11h 40m
Length of Day
10h 43m
Waning Crescent, 27% of the Moon is Illuminated
Oct 23
Waning Crescent
Oct 27
New
Nov 4
First Quarter
Nov 12
Full
Nov 19
Last Quarter

Hourly Weather History & Observations

Time (EDT) Temp. Windchill Dew Point Humidity Pressure Visibility Wind Dir Wind Speed Gust Speed Precip Events Conditions
12:54 AM 48.9 °F - 48.0 °F 97% 29.85 in 10.0 mi SSE 5.8 mph - N/A   Overcast
1:54 AM 46.9 °F - 46.0 °F 97% 29.86 in 10.0 mi SSE 4.6 mph - N/A   Partly Cloudy
2:54 AM 44.1 °F - 43.0 °F 96% 29.88 in 9.0 mi Calm Calm - N/A   Clear
3:08 AM 43.0 °F 41.3 °F 42.1 °F 97% 29.85 in 1.5 mi ESE 3.5 mph - N/A   Clear
3:19 AM 43.0 °F 40.3 °F 43.0 °F 100% 29.85 in 4.0 mi South 4.6 mph - N/A   Clear
3:54 AM 43.0 °F 39.5 °F 42.1 °F 97% 29.88 in 10.0 mi SSE 5.8 mph - N/A   Clear
4:54 AM 41.0 °F 39.0 °F 39.9 °F 96% 29.89 in 10.0 mi South 3.5 mph - N/A   Clear
5:54 AM 39.9 °F 35.8 °F 39.0 °F 97% 29.91 in 10.0 mi SE 5.8 mph - N/A   Clear
6:54 AM 39.9 °F 35.8 °F 37.9 °F 93% 29.93 in 10.0 mi SE 5.8 mph - N/A   Clear
7:54 AM 39.9 °F 35.8 °F 39.0 °F 97% 29.95 in 10.0 mi SSE 5.8 mph - N/A   Clear
8:54 AM 44.1 °F 40.1 °F 42.1 °F 93% 29.96 in 10.0 mi SSE 6.9 mph - N/A   Clear
9:54 AM 50.0 °F - 43.0 °F 77% 29.95 in 10.0 mi ESE 8.1 mph - N/A   Clear
10:54 AM 55.0 °F - 39.9 °F 57% 29.96 in 10.0 mi South 8.1 mph - N/A   Clear
11:54 AM 57.0 °F - 37.0 °F 47% 29.97 in 10.0 mi North - - N/A   Partly Cloudy
12:54 PM 55.0 °F - 30.9 °F 40% 29.99 in 10.0 mi WSW 10.4 mph 18.4 mph N/A   Scattered Clouds
1:54 PM 55.9 °F - 28.9 °F 36% 30.01 in 10.0 mi Variable 6.9 mph 19.6 mph N/A   Partly Cloudy
2:54 PM 57.9 °F - 30.9 °F 36% 30.01 in 10.0 mi SSW 13.8 mph 21.9 mph N/A   Mostly Cloudy
3:54 PM 57.9 °F - 32.0 °F 37% 30.03 in 10.0 mi Variable 5.8 mph 16.1 mph N/A   Partly Cloudy
4:54 PM 57.0 °F - 30.0 °F 36% 30.05 in 10.0 mi Variable 6.9 mph - N/A   Clear
5:54 PM 55.0 °F - 28.9 °F 37% 30.07 in 10.0 mi Calm Calm - N/A   Clear
6:54 PM 50.0 °F - 30.0 °F 46% 30.10 in 10.0 mi Calm Calm - N/A   Clear
7:54 PM 44.1 °F 42.5 °F 35.1 °F 71% 30.13 in 10.0 mi South 3.5 mph - N/A   Clear
8:54 PM 42.1 °F - 34.0 °F 73% 30.14 in 10.0 mi Calm Calm - N/A   Clear
9:54 PM 41.0 °F 38.0 °F 33.1 °F 73% 30.16 in 10.0 mi SSE 4.6 mph - N/A   Clear
10:54 PM 39.9 °F 37.8 °F 33.1 °F 77% 30.17 in 10.0 mi South 3.5 mph - N/A   Clear
11:54 PM 39.0 °F 35.7 °F 33.1 °F 79% 30.16 in 10.0 mi South 4.6 mph - N/A   Clear